User: anonymous
Location: Fort Frances
(48.6170°N, 93.4170°W)
Time: 14:57:50
(UTC-05:00)
Language:

CZ-2C R/B - Orbit

View from above orbital plane
View from above orbital plane
View from above satellite
View from above satellite

Ground track
Ground track

The orbit data is extracted from the following two-line orbital elements,

1 36089U 09061B   14293.69511656  .00000530  00000-0  14434-3 0  4633
2 36089 098.0944 321.6862 0083503 152.5621 319.9746 14.49243778261110
Epoch (UTC): 20 October 2014 16:40:58
Eccentricity: 0.0083503
inclination: 98.0944°
perigee height: 669 km
apogee height: 787 km
right ascension of ascending node: 321.6862°
argument of perigee: 152.5621°
revolutions per day: 14.49243778
mean anomaly at epoch: 319.9746°
orbit number at epoch: 26111

The dashed part of the orbit path shows where the satellite is in the earth's shadow,  

DLR